Location: Bijele Vode
(45.2833°N, 16.2000°E)
Time: 13:28:58
(UTC+00:00)

DMSP B5D1-3 - Pass Details

Date: 18 September 2020
Orbit: 767 x 781 km, 98.5° (Epoch: 29 October)

Event Time Altitude Azimuth Distance (km) Brightness Sun altitude
Rises 17:38:15 0° 15° (NNE) 3,248 7.7 -7.5°
Reaches altitude 10° 17:40:35 10° 18° (NNE) 2,317 6.9 -7.9°
Maximum altitude 17:45:40 70° 102° (ESE) 816 4.5 -8.8°
Drops below altitude 10° 17:50:44 10° 187° (S) 2,302 6.9 -9.7°
Sets 17:53:02 0° 189° (S) 3,226 7.7 -10.1°
